Location: Misciano
(43.5000°N, 11.9500°E)
Time: 07:46:13
(UTC+00:00)

Cosmos 1980 - Pass Details

Date: 13 August 2020
Orbit: 838 x 848 km, 71.0° (Epoch: 26 September)

Event Time Altitude Azimuth Distance (km) Brightness Sun altitude
Rises 22:58:24 0° 336° (NNW) 3,414 7.8 -32.1°
Reaches altitude 10° 23:00:52 10° 339° (NNW) 2,477 6.9 -32.1°
Enters shadow 23:05:28 56° 6° (N) 1,001 4.2 -32.2°
